Waarnemingen

Advertentie
Mijn weer
Lichteiland Goeree, Nederland (6320): temperatuur & dauwpunt: 14.10.2018 04:00:00 - 20.10.2018 04:00:00 (CEST)Lichteiland Goeree, Nederland (6320): water temperatuur: 14.10.2018 04:00:00 - 20.10.2018 04:00:00 (CEST)Lichteiland Goeree, Nederland (6320): windsnelheid & windstoten: 14.10.2018 04:00:00 - 20.10.2018 04:00:00 (CEST)Lichteiland Goeree, Nederland (6320): windrichting: 14.10.2018 04:00:00 - 20.10.2018 04:00:00 (CEST)Lichteiland Goeree, Nederland (6320): luchtdruk: 14.10.2018 04:00:00 - 20.10.2018 04:00:00 (CEST)Lichteiland Goeree, Nederland (6320): zicht: 14.10.2018 04:00:00 - 20.10.2018 04:00:00 (CEST)
Datum & Tijd tt [°C] td [°C] tw [°C] ff [km/u] ff [kn] fx [km/u] fx [kn] dd ppp [hPa] vv [km]
20.10.2018 04:00:00 13,6 6,8 16,0 8 4 14 8 NNO 1028,7 10
20.10.2018 03:00:00 13,6 6,8 16,0 11 6 14 8 NO 1028,4 10
20.10.2018 02:00:00 13,6 6,9 16,0 13 7 14 8 N 1028,3 10
20.10.2018 01:00:00 13,4 7,0 16,0 13 7 14 8 N 1028,2 10
20.10.2018 00:00:00 13,3 7,0 16,0 13 7 18 10 NNO 1027,5 10
19.10.2018 23:00:00 13,1 6,7 16,0 13 7 18 10 NNO 1027,7 10
19.10.2018 22:00:00 13,0 7,1 16,0 16 9 18 10 NNO 1027,7 10
19.10.2018 21:00:00 13,0 6,5 16,0 18 10 22 12 NNO 1027,0 10
19.10.2018 20:00:00 13,1 6,6 16,0 18 10 22 12 N 1026,4 10
19.10.2018 19:00:00 13,0 7,4 16,0 18 10 22 12 N 1025,8 10
19.10.2018 18:00:00 13,0 7,4 17,0 15 8 22 12 N 1025,3 10
19.10.2018 17:00:00 13,2 8,4 16,0 15 8 18 10 N 1025,1 10
19.10.2018 16:00:00 13,2 7,9 16,0 13 7 14 8 NNO 1025,1 10
19.10.2018 15:00:00 13,2 7,8 17,0 13 7 14 8 NO 1025,2 10
19.10.2018 14:00:00 13,1 7,7 16,0 11 6 14 8 NO 1025,4 10
19.10.2018 13:00:00 12,6 8,4 16,0 11 6 18 10 ONO 1025,7 10
19.10.2018 12:00:00 12,4 8,4 16,0 15 8 18 10 ONO 1025,9 10
19.10.2018 11:00:00 12,1 8,1 16,0 21 11 29 16 O 1025,8 10
19.10.2018 10:00:00 12,0 7,7 16,0 24 13 25 14 ONO 1025,5 10
19.10.2018 09:00:00 12,0 7,5 16,0 24 13 25 14 ONO 1025,5 10
19.10.2018 08:00:00 12,1 7,2 16,0 26 14 29 16 O 1025,4 10
19.10.2018 07:00:00 12,2 5,6 16,0 31 17 32 18 O 1025,3 10
19.10.2018 06:00:00 12,0 6,6 16,0 34 18 36 19 O 1025,1 10
19.10.2018 05:00:00 12,2 6,2 17,0 31 17 32 18 O 1025,3 10
19.10.2018 04:00:00 12,4 6,9 17,0 29 16 32 18 O 1025,4 10
19.10.2018 03:00:00 12,7 6,7 17,0 31 17 32 18 O 1025,4 10
19.10.2018 02:00:00 13,0 8,1 17,0 31 17 32 18 O 1025,5 10
19.10.2018 01:00:00 13,6 8,0 17,0 29 16 32 18 O 1025,4 10
19.10.2018 00:00:00 14,2 8,8 16,0 34 18 36 19 O 1025,5 10
18.10.2018 23:00:00 14,4 9,7 16,0 31 17 36 19 ONO 1025,6 10
18.10.2018 22:00:00 14,6 9,2 16,0 29 16 32 18 ONO 1025,8 10
18.10.2018 21:00:00 14,7 6,8 16,0 31 17 36 19 ONO 1025,7 10
18.10.2018 20:00:00 14,8 8,2 16,0 28 15 32 18 NO 1025,3 10
18.10.2018 19:00:00 14,7 7,8 16,0 29 16 32 18 NO 1025,3 10
18.10.2018 18:00:00 14,6 7,2 17,0 26 14 32 18 NO 1025,0 10
18.10.2018 17:00:00 14,8 8,1 17,0 24 13 32 18 NO 1025,1 10
18.10.2018 16:00:00 14,7 7,6 17,0 22 12 36 19 NO 1025,3 34
18.10.2018 15:00:00 14,8 9,3 17,0 29 16 36 19 NO 1025,4 10
18.10.2018 14:00:00 14,6 9,2 17,0 31 17 36 19 NO 1025,3 10
18.10.2018 13:00:00 14,7 8,9 17,0 31 17 36 19 NO 1025,6 10
18.10.2018 12:00:00 14,5 9,6 17,0 34 18 36 19 NNO 1025,7 10
18.10.2018 11:00:00 14,8 10,4 17,0 29 16 32 18 NO 1025,5 10
18.10.2018 10:00:00 14,6 9,5 17,0 34 18 32 18 NO 1025,0 10
18.10.2018 09:00:00 14,8 10,2 17,0 31 17 36 19 NO 1024,5 10
18.10.2018 08:00:00 15,0 10,3 17,0 29 16 36 19 NO 1024,0 10
18.10.2018 07:00:00 15,1 10,8 17,0 34 18 36 19 NNO 1023,4 10
18.10.2018 06:00:00 15,2 10,8 17,0 35 19 40 21 NO 1023,3 10
18.10.2018 05:00:00 15,2 11,3 17,0 39 21 40 21 NNO 1022,9 10
18.10.2018 04:00:00 14,6 13,0 17,0 31 17 36 19 NNO 1022,9 7
18.10.2018 03:00:00 15,1 12,8 17,0 18 10 22 12 N 1022,9 10
18.10.2018 02:00:00 15,4 12,1 17,0 11 6 14 8 NNO 1022,8 10
18.10.2018 01:00:00 15,3 12,2 17,0 13 7 18 10 NNO 1022,7 10
18.10.2018 00:00:00 15,2 11,2 17,0 21 11 25 14 N 1022,3 10
17.10.2018 23:00:00 15,2 11,4 17,0 18 10 22 12 NNO 1022,0 10
17.10.2018 22:00:00 15,3 11,1 17,0 15 8 22 12 N 1021,7 10
17.10.2018 21:00:00 15,3 11,1 17,0 16 9 18 10 N 1021,1 10
17.10.2018 20:00:00 15,4 10,6 17,0 15 8 14 8 NW 1020,7 10
17.10.2018 19:00:00 15,4 10,3 17,0 11 6 14 8 NW 1020,3 10
17.10.2018 18:00:00 15,5 10,3 17,0 15 8 18 10 WNW 1019,9 10
17.10.2018 17:00:00 15,8 10,1 17,0 18 10 22 12 W 1019,8 10
17.10.2018 16:00:00 15,8 10,3 17,0 16 9 22 12 W 1019,6 10
17.10.2018 15:00:00 15,7 10,6 17,0 18 10 22 12 W 1019,4 10
17.10.2018 14:00:00 15,7 11,4 17,0 16 9 18 10 W 1019,3 10
17.10.2018 13:00:00 15,7 11,8 17,0 18 10 18 10 W 1019,3 10
17.10.2018 12:00:00 15,9 12,0 17,0 16 9 18 10 W 1019,3 10
17.10.2018 11:00:00 16,0 12,4 17,0 18 10 18 10 W 1019,2 10
17.10.2018 10:00:00 16,0 12,6 17,0 16 9 18 10 W 1018,9 10
17.10.2018 09:00:00 16,1 12,9 17,0 15 8 14 8 WZW 1018,5 10
17.10.2018 08:00:00 16,2 12,9 17,0 11 6 18 10 W 1018,1 10
17.10.2018 07:00:00 16,1 12,8 17,0 21 11 25 14 WNW 1017,9 10
17.10.2018 06:00:00 16,4 13,9 17,0 24 13 25 14 W 1017,6 10
17.10.2018 05:00:00 16,4 14,0 17,0 18 10 22 12 W 1017,3 10
17.10.2018 04:00:00 16,4 14,3 17,0 18 10 22 12 WZW 1017,2 10
17.10.2018 03:00:00 16,4 14,5 17,0 21 11 22 12 WZW 1017,4 10
17.10.2018 02:00:00 16,6 14,7 17,0 15 8 18 10 WZW 1017,3 10
17.10.2018 01:00:00 16,8 14,8 17,0 21 11 25 14 W 1017,4 10
17.10.2018 00:00:00 17,1 14,3 17,0 24 13 25 14 W 1017,5 10
16.10.2018 23:00:00 18,1 13,2 17,0 28 15 29 16 Z 1017,2 10
16.10.2018 22:00:00 19,7 11,0 17,0 28 15 29 16 ZZO 1017,1 10
16.10.2018 21:00:00 20,0 11,6 17,0 24 13 25 14 ZZO 1017,1 10
16.10.2018 20:00:00 20,3 11,9 17,0 18 10 18 10 ZZO 1017,3 10
16.10.2018 19:00:00 21,0 11,3 17,0 16 9 14 8 ZO 1017,2 10
16.10.2018 18:00:00 22,1 10,4 17,0 11 6 14 8 ZZO 1017,0 10
16.10.2018 17:00:00 21,2 9,0 17,0 13 7 14 8 Z 1017,2 10
16.10.2018 16:00:00 20,4 9,6 17,0 16 9 18 10 Z 1017,2 10
16.10.2018 15:00:00 19,4 10,5 17,0 16 9 18 10 ZZW 1017,5 10
16.10.2018 14:00:00 18,3 13,0 17,0 16 9 18 10 ZZW 1017,6 10
16.10.2018 13:00:00 18,0 12,1 17,0 18 10 18 10 ZZW 1017,5 10
16.10.2018 12:00:00 17,3 13,0 17,0 21 11 22 12 ZZW 1017,5 10
16.10.2018 11:00:00 16,7 12,9 17,0 21 11 22 12 Z 1017,4 10
16.10.2018 10:00:00 16,3 12,6 17,0 21 11 22 12 Z 1017,1 10
16.10.2018 09:00:00 16,2 13,6 17,0 22 12 25 14 Z 1016,6 10
16.10.2018 08:00:00 16,1 13,9 17,0 22 12 25 14 ZZO 1016,3 9
16.10.2018 07:00:00 16,3 14,7 17,0 21 11 22 12 ZO 1015,9 6
16.10.2018 06:00:00 16,4 15,7 17,0 13 7 14 8 O 1015,9 6
16.10.2018 05:00:00 16,8 16,1 16,0 5 3 7 4 ONO 1016,0 5
16.10.2018 04:00:00 16,6 16,0 17,0 4 2 11 6 NO 1015,8 5
16.10.2018 03:00:00 16,6 15,9 17,0 8 4 7 4 NNW 1015,7 5
16.10.2018 02:00:00 16,7 15,6 17,0 2 1 7 4 W 1015,7 10
16.10.2018 01:00:00 16,7 15,4 17,0 4 2 4 2 ZW 1015,3 10
16.10.2018 00:00:00 16,8 15,4 17,0 5 3 7 4 Z 1015,3 10
15.10.2018 23:00:00 17,0 15,6 17,0 4 2 7 4 - 1014,9 10
15.10.2018 22:00:00 17,0 15,7 17,0 4 2 7 4 - 1014,4 10
15.10.2018 21:00:00 17,1 15,6 17,0 8 4 11 6 W 1013,9 10
15.10.2018 20:00:00 17,4 15,4 17,0 13 7 18 10 W 1013,6 10
15.10.2018 19:00:00 17,5 15,3 17,0 16 9 18 10 W 1013,1 10
15.10.2018 18:00:00 17,8 15,1 17,0 16 9 18 10 W 1012,4 10
15.10.2018 17:00:00 17,8 15,0 17,0 15 8 22 12 W 1011,8 10
15.10.2018 16:00:00 18,0 14,6 17,0 26 14 29 16 WZW 1011,5 10
15.10.2018 15:00:00 18,5 14,5 17,0 24 13 29 16 ZW 1011,0 10
15.10.2018 14:00:00 18,5 14,1 16,0 29 16 29 16 ZZW 1010,8 10
15.10.2018 13:00:00 18,2 13,9 17,0 29 16 32 18 ZZW 1010,5 10
15.10.2018 12:00:00 18,0 13,5 17,0 28 15 36 19 ZZW 1010,3 10
15.10.2018 11:00:00 17,7 12,9 17,0 29 16 32 18 Z 1009,8 10
15.10.2018 10:00:00 16,9 12,6 17,0 24 13 25 14 Z 1009,4 10
15.10.2018 09:00:00 16,8 12,8 17,0 24 13 25 14 Z 1008,9 10
15.10.2018 08:00:00 16,8 12,5 17,0 26 14 29 16 Z 1008,3 10
15.10.2018 07:00:00 16,9 12,8 17,0 21 11 25 14 ZZO 1007,9 10
15.10.2018 06:00:00 17,0 12,9 16,0 22 12 22 12 ZZO 1007,9 10
15.10.2018 05:00:00 17,4 12,8 17,0 22 12 29 16 ZZO 1007,6 10
15.10.2018 04:00:00 17,7 12,7 16,0 24 13 29 16 ZZO 1007,7 10
15.10.2018 03:00:00 18,1 12,7 16,0 11 6 14 8 O 1007,6 10
15.10.2018 02:00:00 18,4 12,7 16,0 4 2 11 6 - 1007,6 10
15.10.2018 01:00:00 18,6 13,3 17,0 11 6 14 8 Z 1007,4 10
15.10.2018 00:00:00 19,0 13,1 17,0 13 7 22 12 Z 1007,6 10
14.10.2018 23:00:00 19,4 13,5 17,0 18 10 25 14 - 1007,4 10
14.10.2018 22:00:00 19,5 13,3 17,0 24 13 25 14 Z 1007,0 10
14.10.2018 21:00:00 20,7 12,6 16,0 21 11 22 12 Z 1006,7 10
14.10.2018 20:00:00 20,5 13,2 17,0 24 13 29 16 Z 1006,4 10
14.10.2018 19:00:00 20,1 13,3 17,0 34 18 32 18 ZZW 1006,0 10
14.10.2018 18:00:00 19,8 14,5 16,0 29 16 32 18 ZZW 1005,7 10
14.10.2018 17:00:00 20,7 13,8 17,0 29 16 32 18 Z 1005,5 10
14.10.2018 16:00:00 20,0 13,6 16,0 29 16 32 18 Z 1005,2 10
14.10.2018 15:00:00 19,6 13,6 16,0 31 17 32 18 Z 1005,3 10
14.10.2018 14:00:00 19,0 14,1 16,0 21 11 25 14 ZZW 1005,5 10
14.10.2018 13:00:00 18,0 14,1 17,0 26 14 32 18 Z 1005,8 10
14.10.2018 12:00:00 17,4 13,7 17,0 34 18 32 18 Z 1005,9 10
14.10.2018 11:00:00 17,1 13,2 17,0 28 15 36 19 Z 1006,5 10
14.10.2018 10:00:00 16,9 13,2 17,0 31 17 32 18 ZZO 1006,7 10
14.10.2018 09:00:00 16,6 13,7 17,0 31 17 32 18 ZZO 1006,9 10
14.10.2018 08:00:00 16,8 13,8 16,0 34 18 32 18 ZZO 1006,9 10
14.10.2018 07:00:00 17,0 14,0 16,0 31 17 29 16 ZZO 1007,3 10
14.10.2018 06:00:00 16,9 14,4 16,0 24 13 29 16 ZZO 1008,1 10
14.10.2018 05:00:00 17,4 14,4 16,0 28 15 29 16 Z 1008,5 10
14.10.2018 04:00:00 17,8 14,4 16,0 31 17 32 18 Z 1008,9 10

tt = temperatuur
td = dauwpunt
tw = water temperatuur
ff = windsnelheid
fx = windstoten
dd = windrichting
ppp = luchtdruk
vv = zicht

Weerstations in de omgeving